GFSNIL_con_mucape_240.txt.gz
CAPE
4 27 23 12 5 4 18 3 1 6 5 30 52 66 55 47 33 35 9 14 2 0
5 7 17 3 5 6 7 4 1 0 0 0 15 26 24 23 22 37 27 7 7 4
6 5 5 4 12 12 9 5 6 5 0 0 0 1 17 30 23 41 26 30 8 13
10 8 6 10 7 37 32 28 3 7 14 1 3 0 0 0 1 13 12 3 17 11
0 6 12 2 5 7 16 14 18 10 1 0 0 1 0 0 0 6 13 28 1 28
0 0 3 3 0 2 5 15 15 3 2 0 6 11 0 3 0 1 0 8 6 0
0 0 0 0 0 9 1 9 0 2 2 0 3 4 2 1 6 0 2 0 9 3
0 0 0 0 0 6 4 6 22 3 1 3 1 0 3 1 0 0 1 0 0 0
0 0 0 0 0 0 1 5 23 5 11 0 0 0 0 0 0 0 0 0 0 0
0 0 0 0 0 0 1 2 0 21 3 0 0 0 0 0 0 0 0 0 0 0
0 0 0 0 0 0 0 0 0 0 3 0 0 0 0 0 0 0 0 0 0 0
0 0 0 0 0 0 0 0 0 2 6 0 0 0 0 0 0 0 0 0 0 0
0 0 0 0 0 0 0 0 0 1 8 2 1 0 1 0 0 0 0 0 0 17
0 0 0 0 0 0 0 0 4 6 5 8 4 0 1 0 0 0 0 0 2 6

GFSNIL_con_mucape_243.txt.gz
CAPE
12 0 9 14 17 13 4 4 4 9 19 15 35 46 68 81 62 22 14 22 29 17
2 1 1 9 8 22 24 16 1 11 21 10 35 26 45 18 26 16 38 10 27 54
8 7 7 8 18 8 30 13 19 6 12 11 4 19 36 11 13 37 57 10 5 3
7 12 11 6 16 12 6 8 13 25 9 12 5 4 5 14 14 12 11 19 65 30
7 14 13 14 12 9 13 26 21 28 12 9 4 18 4 3 9 3 24 25 35 22
0 0 3 5 7 11 1 10 25 31 27 17 14 13 2 0 2 19 7 7 18 28
0 0 0 0 0 2 0 2 0 8 23 9 1 0 0 0 1 14 3 9 15 8
0 0 0 0 0 0 0 3 6 1 2 0 0 1 3 3 7 11 9 6 17 9
0 0 0 0 0 0 0 0 0 1 0 22 7 0 0 0 2 7 0 0 2 3
0 0 0 0 0 0 0 0 0 0 14 18 1 0 0 0 2 0 0 0 0 0
0 0 0 0 0 0 0 0 0 0 0 0 3 0 0 0 2 0 0 0 0 0
0 0 0 0 0 0 0 0 0 0 0 0 3 5 0 0 0 0 0 0 0 0
0 0 0 0 0 0 0 0 0 0 0 0 0 4 0 0 0 0 0 1 0 0
0 0 0 0 0 0 0 0 0 0 0 1 2 6 2 1 0 0 0 2 0 1

GFSNIL_con_mucape_249.txt.gz
CAPE
259 313 303 275 364 209 208 264 184 208 209 157 114 67 36 27 33 44 36 36 33 29
232 203 199 285 201 225 48 11 58 76 96 80 90 72 48 34 47 44 45 48 33 26
244 179 125 128 76 136 29 14 4 15 23 29 79 78 70 74 54 44 36 23 18 26
168 192 62 19 25 53 15 4 0 17 11 11 16 24 47 50 38 52 44 13 10 12
1 4 20 15 33 31 23 5 0 19 23 26 8 11 7 31 71 46 47 26 47 39
0 1 25 0 3 5 9 8 9 13 34 37 42 36 18 5 13 19 66 48 51 37
0 0 0 0 0 9 15 26 18 7 11 10 10 22 36 21 6 11 19 37 35 21
0 0 0 0 0 0 5 8 13 9 1 6 13 14 16 18 9 26 9 13 1 9
0 0 0 0 0 0 0 0 0 0 5 7 13 18 26 0 2 2 21 12 8 2
0 0 0 0 0 0 0 0 0 0 0 0 5 11 8 11 0 1 0 4 5 3
0 0 0 0 0 0 0 0 0 0 0 0 0 0 0 0 10 12 28 17 13 0
0 0 0 0 0 0 0 0 0 0 0 0 0 0 0 3 11 30 9 4 0 5
0 0 0 0 0 0 0 0 0 0 0 0 0 0 0 0 0 1 0 0 1 0
0 0 0 0 0 0 0 0 0 0 0 0 0 0 0 0 0 0 0 0 0 0

GFSNIL_con_mucape_255.txt.gz
CAPE
0 0 2 3 16 35 110 148 129 301 155 113 136 226 156 219 175 156 100 62 67 47
1 0 0 8 39 27 87 121 216 242 145 148 578 592 582 233 169 135 91 117 139 58
3 2 3 15 55 29 103 220 117 217 129 99 286 549 496 568 361 439 280 202 177 94
0 5 4 18 13 55 114 150 164 98 140 361 444 340 477 543 349 332 231 179 283 98
0 0 0 37 110 96 111 75 163 141 183 159 166 399 408 326 298 184 185 109 140 132
0 0 0 0 40 48 83 41 94 91 97 142 145 123 131 189 247 163 12 129 149 84
0 0 0 0 0 0 8 28 30 14 57 53 104 100 104 110 70 57 165 141 100 77
0 0 0 0 0 0 0 0 5 2 53 48 66 87 58 32 17 17 12 13 12 16
0 0 0 0 0 0 0 18 0 0 3 9 15 24 14 7 5 7 10 25 13 12
0 0 0 0 0 0 0 2 5 0 1 2 0 1 1 0 2 5 8 5 2 7
0 0 0 0 0 0 0 0 0 0 0 0 0 2 23 0 1 7 12 6 8 16
0 0 0 0 0 0 0 0 0 0 0 0 1 8 11 4 1 0 5 7 13 1
0 0 0 0 0 0 0 0 0 0 0 0 0 0 0 0 0 0 0 0 0 0
0 0 0 0 0 0 0 0 0 0 0 0 0 0 0 0 0 0 0 0 0 0

GFSNIL_con_mucape_261.txt.gz
CAPE
0 0 0 0 2 0 0 7 48 39 65 79 58 150 183 203 130 94 74 35 53 40
0 0 0 0 0 0 0 0 26 62 72 121 86 138 141 163 140 118 54 41 60 44
0 0 0 0 0 0 0 0 1 81 57 56 113 110 150 132 132 136 99 44 36 35
0 0 0 0 0 0 0 0 0 31 68 28 23 25 175 101 110 116 173 108 37 17
0 0 0 0 0 0 0 0 0 0 26 1 3 13 178 101 110 81 369 86 37 48
0 0 0 0 0 0 0 0 0 0 0 0 0 0 6 96 165 153 308 112 26 8
0 0 0 0 0 0 0 0 0 0 0 0 0 1 0 53 85 136 160 109 42 23
0 0 0 0 0 0 0 0 0 0 0 0 0 2 17 7 29 101 113 82 43 68
0 0 0 0 0 0 0 0 0 0 0 13 2 13 0 16 25 71 105 76 50 158
0 0 0 0 0 0 0 0 0 0 0 0 7 14 6 0 3 102 125 33 54 169
0 0 0 0 0 0 0 0 0 0 0 0 0 1 27 131 68 198 123 34 56 58
0 0 0 0 0 0 0 0 0 0 0 0 1 2 0 1 3 15 28 32 140 97
0 0 0 0 0 0 0 0 0 0 0 0 0 4 5 4 12 26 10 9 36 8
0 0 0 0 0 0 0 0 0 0 0 0 0 0 0 0 0 2 0 0 0 2